Location: Cañada de la Miga
(34.7595°N, 106.2317°W)
Time: 23:09:22
(UTC+00:00)

Transit 4A - Pass Details

Date: 05 December 2021
Orbit: 864 x 980 km, 66.8° (Epoch: 17 January)

Event Time Altitude Azimuth Distance (km) Brightness Sun altitude
Rises 02:56:43 0° 240° (WSW) 3,448 11.7 -36.9°
Reaches altitude 10° 02:59:37 10° 253° (WSW) 2,525 10.9 -37.5°
Enters shadow 03:04:19 25° 307° (NW) 1,717 9.6 -38.5°
Maximum altitude 03:04:20 25° 308° (NW) 1,717 - -38.5°
Drops below altitude 10° 03:09:11 10° 2° (N) 2,590 - -39.5°
Sets 03:12:13 0° 16° (NNE) 3,556 - -40.1°
